DW8548 Weather Reports


time (UTC)temp
C
wind
direction
speed
KPH
gust
KPH
rain 1hr
cm
rain 24hr
cm
rain mn
cm
humidity
%
barometer
mb
20260503024555 15 109 1.6 9.7 0.00 0.00 0.00 77 1026.5
20260503023059 15 0 3.2 9.7 0.00 0.00 0.00 77 1026.6
20260503020052 13 73 1.6 8.0 0.00 0.00 0.00 82 1026.9
20260503014603 13 0 1.6 9.7 0.00 0.00 0.00 84 1026.9
20260503013056 12 128 1.6 9.7 0.00 0.00 0.00 86 1027.0
20260503011556 12 109 1.6 11.3 0.00 0.00 0.00 88 1027.0
20260503010055 11 92 3.2 8.0 0.00 0.00 0.00 90 1026.9
20260503004552 10 103 0.0 6.4 0.00 0.00 0.00 91 1026.9
20260503003053 9 89 1.6 8.0 0.00 0.00 0.00 91 1026.9
20260503001551 9 123 1.6 8.0 0.00 0.00 0.00 92 1026.7
20260503000054 8 0 0.0 0.0 0.00 0.00 0.00 93 1026.5
20260502234555 7 0 0.0 0.0 0.00 0.00 0.00 92 1026.4
20260502233054 6 0 0.0 0.0 0.00 0.00 0.00 92 1026.1
20260502231605 5 0 0.0 0.0 0.00 0.00 0.00 92 1026.0
20260502230054 5 0 0.0 0.0 0.00 0.00 0.00 92 1025.7
20260502224556 5 0 0.0 0.0 0.00 0.00 0.00 92 1025.5
20260502223057 5 0 0.0 0.0 0.00 0.00 0.00 92 1025.5
20260502221556 5 0 0.0 0.0 0.00 0.00 0.00 92 1025.4
20260502220104 5 0 0.0 0.0 0.00 0.00 0.00 92 1025.3
20260502214558 5 0 0.0 0.0 0.00 0.00 0.00 92 1025.2
20260502213055 5 0 0.0 0.0 0.00 0.00 0.00 92 1025.2
20260502211553 5 0 0.0 0.0 0.00 0.00 0.00 92 1025.0
20260502210101 5 0 0.0 0.0 0.00 0.00 0.00 92 1024.9
20260502204552 6 0 0.0 0.0 0.00 0.00 0.00 92 1024.8
20260502203053 5 0 0.0 0.0 0.00 0.00 0.00 92 1024.7
20260502201603 6 0 0.0 0.0 0.00 0.00 0.00 92 1024.6
20260502200106 6 0 0.0 0.0 0.00 0.00 0.00 91 1024.5
20260502194612 6 0 0.0 0.0 0.00 0.00 0.00 91 1024.5
20260502193056 6 0 0.0 0.0 0.00 0.00 0.00 91 1024.6
20260502191554 6 0 0.0 0.0 0.00 0.00 0.00 91 1024.7
20260502190105 6 0 0.0 0.0 0.00 0.00 0.00 91 1024.7
20260502184559 6 0 0.0 0.0 0.00 0.00 0.00 91 1024.6
20260502183056 6 0 0.0 0.0 0.00 0.00 0.00 91 1024.7
20260502181558 6 0 0.0 0.0 0.00 0.00 0.00 91 1024.7
20260502180125 6 0 0.0 0.0 0.00 0.00 0.00 91 1024.6
20260502163056 7 0 0.0 0.0 0.00 0.00 0.00 90 1024.4
20260502161559 7 0 0.0 0.0 0.00 0.00 0.00 89 1024.4
20260502151608 8 0 0.0 0.0 0.00 0.00 0.00 88 1024.9
20260502130103 10 0 0.0 0.0 0.00 0.00 0.00 85 1024.6
20260502123101 10 0 0.0 0.0 0.00 0.00 0.00 83 1024.6
20260502121603 11 0 0.0 0.0 0.00 0.00 0.00 83 1024.6
20260502114602 11 0 0.0 0.0 0.00 0.00 0.00 83 1024.5
20260502113056 11 0 0.0 0.0 0.00 0.00 0.00 81 1024.4
20260502111602 11 0 0.0 0.0 0.00 0.00 0.00 80 1024.3
20260502110053 12 0 0.0 0.0 0.00 0.00 0.00 78 1024.3
20260502104558 12 0 0.0 0.0 0.00 0.00 0.00 76 1024.3
20260502103106 12 0 0.0 0.0 0.00 0.00 0.00 75 1024.1
20260502101620 13 0 0.0 0.0 0.00 0.00 0.00 73 1024.0
20260502100116 13 0 0.0 1.6 0.00 0.00 0.00 71 1023.9
20260502080105 17 91 0.0 9.7 0.00 0.00 0.00 55 1023.5
20260502070053 17 171 3.2 12.9 0.00 0.00 0.00 53 1023.5
20260502064559 17 0 3.2 9.7 0.00 0.00 0.00 54 1023.5
20260502063100 17 60 1.6 11.3 0.00 0.00 0.00 54 1023.4
20260502061555 17 67 0.0 4.8 0.00 0.00 0.00 57 1023.6
20260502060107 17 102 0.0 9.7 0.00 0.00 0.00 57 1023.7
20260502054553 16 219 0.0 8.0 0.00 0.00 0.00 56 1023.7
20260502053101 17 93 3.2 11.3 0.00 0.00 0.00 55 1024.1
20260502051601 17 163 1.6 8.0 0.00 0.00 0.00 55 1024.3
20260502050058 17 0 1.6 11.3 0.00 0.00 0.00 58 1024.6
20260502044553 17 101 1.6 14.5 0.00 0.00 0.00 56 1024.9
20260502043056 16 73 3.2 8.0 0.00 0.00 0.00 58 1025.2
20260502041553 16 186 1.6 8.0 0.00 0.00 0.00 59 1025.6
20260502040055 16 0 1.6 11.3 0.00 0.00 0.00 60 1025.8
20260502034556 16 257 3.2 11.3 0.00 0.00 0.00 57 1025.9
20260502033056 16 69 1.6 11.3 0.00 0.00 0.00 58 1026.0
20260502031557 15 266 3.2 9.7 0.00 0.00 0.00 59 1026.1
20260502030057 15 175 3.2 8.0 0.00 0.00 0.00 64 1026.3